TimeEDT,TemperatureF,Dew PointF,Humidity,Sea Level PressureIn,VisibilityMPH,Wind Direction,Wind SpeedMPH,Gust SpeedMPH,PrecipitationIn,Events,Conditions,WindDirDegrees,DateUTC
12:53 AM,54.0,48.0,80,30.27,10.0,East,5.8,-,N/A,,Clear,100,2011-10-07 04:53:00
1:53 AM,55.0,48.9,80,30.27,10.0,ESE,8.1,-,N/A,,Clear,110,2011-10-07 05:53:00
2:53 AM,54.0,48.9,83,30.27,10.0,ESE,3.5,-,N/A,,Clear,120,2011-10-07 06:53:00
3:53 AM,55.9,48.9,77,30.27,10.0,ESE,4.6,-,N/A,,Clear,110,2011-10-07 07:53:00
4:53 AM,54.0,48.9,83,30.27,10.0,SE,3.5,-,N/A,,Clear,130,2011-10-07 08:53:00
5:53 AM,51.1,48.0,89,30.29,10.0,Calm,Calm,-,N/A,,Clear,0,2011-10-07 09:53:00
6:53 AM,50.0,46.0,86,30.31,10.0,Calm,Calm,-,N/A,,Clear,0,2011-10-07 10:53:00
7:53 AM,50.0,46.9,89,30.33,9.0,East,5.8,-,N/A,,Clear,90,2011-10-07 11:53:00
8:53 AM,57.0,52.0,83,30.35,10.0,ESE,3.5,-,N/A,,Clear,110,2011-10-07 12:53:00
9:53 AM,66.0,54.0,65,30.36,10.0,SE,4.6,-,N/A,,Clear,130,2011-10-07 13:53:00
10:53 AM,72.0,54.0,53,30.37,10.0,SSE,5.8,-,N/A,,Clear,150,2011-10-07 14:53:00
1:53 PM,81.0,48.9,33,30.32,10.0,Calm,Calm,-,N/A,,Clear,0,2011-10-07 17:53:00
2:53 PM,82.0,48.9,31,30.29,10.0,SW,5.8,-,N/A,,Clear,220,2011-10-07 18:53:00
3:53 PM,84.0,48.0,28,30.28,10.0,SSE,6.9,-,N/A,,Clear,160,2011-10-07 19:53:00
5:53 PM,82.9,46.9,28,30.27,10.0,ESE,6.9,-,N/A,,Clear,110,2011-10-07 21:53:00
6:53 PM,77.0,48.9,37,30.27,10.0,ESE,5.8,-,N/A,,Clear,110,2011-10-07 22:53:00
7:53 PM,68.0,48.9,50,30.29,10.0,ESE,6.9,-,N/A,,Clear,110,2011-10-07 23:53:00
8:53 PM,66.0,48.9,54,30.30,10.0,ESE,5.8,-,N/A,,Clear,120,2011-10-08 00:53:00
9:53 PM,60.1,50.0,69,30.31,10.0,East,5.8,-,N/A,,Clear,80,2011-10-08 01:53:00
10:53 PM,57.9,50.0,75,30.31,10.0,ESE,5.8,-,N/A,,Clear,110,2011-10-08 02:53:00
11:53 PM,57.0,50.0,77,30.31,10.0,East,4.6,-,N/A,,Clear,100,2011-10-08 03:53:00